Location: Usti nad Labem
(50.6670°N, 14.0330°E)
Time: 00:28:40
(UTC+01:00)

ISS - Pass Details

Date: 03 October 2020
Orbit: 417 x 420 km, 51.6° (Epoch: 30 October)

Event Time Altitude Azimuth Distance (km) Brightness Sun altitude
Rises 19:32:10 0° 286° (WNW) 2,369 2.1 -9.6°
Reaches altitude 10° 19:34:18 10° 281° (WNW) 1,503 0.7 -9.9°
Maximum altitude 19:37:36 53° 204° (SSW) 523 -3.2 -10.5°
Enters shadow 19:40:26 13° 128° (SE) 1,319 -1.7 -10.9°
